{"data":{"norad_id":64529,"epoch":"2026-05-25T03:27:47.551104Z","epoch_age_seconds":69724,"freshness":"FRESH","line1":"1 64529U 25135B   26145.14430036  .00003106  00000+0  14695-3 0  9998","line2":"2 64529  97.4720 260.1605 0003523 244.6815 115.4055 15.20107500 51323","mean_motion":15.201075,"eccentricity":0.0003523,"inclination_deg":97.472,"raan_deg":260.1605,"arg_perigee_deg":244.6815,"mean_anomaly_deg":115.4055,"bstar":0.00014695,"rev_number":5132,"period_min":94.730142440584,"perigee_km":503.09094839127,"apogee_km":507.9411703369,"semimajor_km":6883.6530593641,"source":"CELESTRAK","updated_at":"2026-05-25T13:38:04.579616Z"}}